Wind_Speed
18 17 17 18 18 17 17 19 19 15 11 11 11 12 11 10 8 8 9 7 7 7 7 8 9 11 12 12 13 13 13 13 13 12 12 12 12 12 13 13 13 13 12 11 10 9 7 6 6
22 21 21 20 19 17 19 22 21 17 13 12 11 12 11 9 7 7 10 9 8 8 9 10 11 12 13 14 15 15 15 15 15 14 14 13 13 13 14 14 13 12 12 11 9 8 7 6 5
26 25 24 22 19 17 20 23 23 19 15 14 14 14 12 8 5 8 9 9 9 10 10 12 13 13 14 15 16 16 17 17 16 16 15 14 14 14 14 14 13 12 11 10 9 8 7 6 5
29 29 27 24 18 18 22 25 25 20 17 16 17 16 10 8 5 8 9 10 10 10 10 12 13 14 15 16 16 17 18 18 17 17 16 15 15 14 14 13 12 11 10 9 8 7 6 6 6
31 31 30 26 20 20 22 26 27 22 17 17 19 18 12 8 6 8 10 11 10 11 12 11 13 14 15 17 17 17 17 18 18 17 16 15 14 14 13 12 12 11 9 9 8 7 6 6 6
31 33 32 28 23 23 24 26 27 24 18 18 20 19 13 9 7 9 12 13 11 11 12 12 12 14 15 16 16 17 17 17 17 17 16 15 14 13 12 12 11 10 9 8 8 7 6 6 6
31 33 33 30 27 26 26 28 28 25 21 21 23 19 16 11 9 11 13 13 12 11 11 11 12 13 14 15 15 16 16 17 17 17 16 15 14 13 12 11 10 9 8 8 7 7 6 6 6
32 33 33 31 30 27 28 31 29 26 24 24 25 22 19 14 12 12 14 13 13 12 11 11 11 12 13 14 15 15 16 16 16 16 16 15 14 13 12 10 9 9 8 8 7 7 7 7 7
31 32 31 30 31 30 31 33 31 29 27 25 24 23 20 16 14 13 13 14 14 13 12 12 12 12 13 13 14 15 16 16 16 16 15 14 14 13 11 10 9 9 8 8 7 7 8 8 8
29 30 28 30 33 34 35 35 33 31 29 26 25 24 21 18 16 15 15 16 16 14 13 13 13 13 13 13 13 14 16 16 16 15 15 14 13 12 11 10 9 9 9 8 8 8 9 9 10
28 28 28 31 34 36 37 36 35 34 31 29 26 23 21 19 17 17 17 19 19 17 15 13 13 13 13 13 13 14 15 15 15 15 14 14 13 12 11 10 10 10 9 9 9 9 10 11 12
27 27 29 31 34 36 37 38 38 36 32 30 27 23 22 19 18 19 18 21 21 20 17 14 13 13 13 13 14 14 15 15 14 14 13 13 13 12 12 11 11 11 10 10 10 10 12 13 14
27 27 29 31 34 36 38 40 39 38 35 32 28 25 23 19 19 20 20 21 22 20 18 15 14 14 14 14 15 15 15 14 14 14 14 14 13 13 13 13 13 13 12 12 12 13 14 15 16
27 28 29 31 33 36 39 40 41 38 36 35 32 28 26 23 22 22 23 25 23 23 21 18 17 17 16 16 16 16 15 15 14 14 14 15 15 15 15 14 14 14 14 14 14 15 16 18 18
27 28 28 28 31 34 37 40 41 37 36 36 35 32 30 27 25 24 22 22 23 22 21 21 19 19 19 18 17 16 15 15 15 15 15 16 16 16 15 15 16 16 16 17 17 18 19 21 21
25 25 24 23 27 29 35 38 36 36 37 37 36 35 32 30 28 26 24 23 23 22 20 21 21 20 20 19 18 17 17 17 16 16 17 17 17 17 17 17 17 18 19 20 21 21 22 22 23
21 21 20 20 22 24 31 33 33 36 38 39 38 37 35 32 31 28 27 27 27 23 22 22 20 21 20 19 19 18 17 17 17 17 18 19 19 18 18 19 20 20 21 22 24 23 23 24 25
15 17 17 17 17 20 24 26 29 34 37 38 39 38 37 33 31 29 29 28 27 27 25 24 23 21 20 19 19 18 18 18 19 19 19 19 18 19 20 21 22 23 23 24 25 25 25 26 26
15 16 16 16 16 19 22 22 25 30 33 35 36 38 36 34 32 32 31 30 28 27 27 25 23 22 21 21 21 20 20 20 19 19 20 19 20 22 22 23 23 23 24 24 25 25 26 27 28
17 17 16 17 17 18 19 21 23 26 28 30 32 34 34 33 31 31 32 30 31 29 27 23 24 25 23 21 21 21 21 21 21 21 21 21 23 24 24 24 24 24 24 24 24 25 26 27 27
18 17 16 15 16 16 17 20 21 22 25 27 28 29 30 30 30 30 31 29 28 26 27 25 24 24 24 23 22 22 22 22 22 22 23 23 23 24 25 26 26 26 25 25 25 25 25 25 26
16 17 17 16 17 18 18 19 21 21 23 25 26 27 28 29 29 29 30 30 29 27 25 23 22 23 23 23 23 23 23 23 23 23 24 25 26 25 26 27 27 26 26 26 26 26 25 26 27
16 17 17 16 18 20 20 20 21 22 23 24 25 26 28 29 29 29 29 29 29 27 24 23 22 23 22 22 22 23 23 24 24 25 26 27 28 27 28 28 28 29 27 26 25 24 25 26 28
15 17 17 16 17 20 20 22 21 22 24 25 26 26 27 28 28 28 29 29 29 29 26 23 23 24 24 24 24 25 24 26 27 28 29 30 30 30 30 29 29 30 30 29 28 28 29 29 32
15 17 17 16 18 18 18 22 23 22 24 25 24 25 26 28 28 29 29 28 28 27 26 24 24 24 25 25 26 27 27 28 29 29 30 30 30 31 31 32 32 32 31 32 32 33 33 34 36
16 16 16 14 15 17 18 21 22 23 24 24 23 23 24 25 26 27 27 26 24 24 25 25 25 25 25 26 27 28 28 29 30 30 31 32 32 32 32 33 34 34 35 35 36 36 37 38 39
16 16 15 14 15 16 18 19 21 21 21 22 22 22 23 23 24 24 24 25 24 24 25 26 26 26 26 26 27 28 29 30 31 32 32 33 34 35 35 35 36 36 37 38 39 39 40 41 42
15 16 16 16 15 15 17 18 19 20 21 22 21 21 22 22 23 23 24 24 24 24 25 25 26 27 28 29 29 30 30 31 32 33 35 36 37 37 38 38 39 39 40 41 42 42 43 44 44
14 15 15 15 14 16 16 17 17 18 18 18 19 21 21 20 21 23 25 26 26 26 26 26 28 28 29 30 31 32 33 34 34 35 37 37 38 39 40 40 41 42 42 43 43 43 44 45 46
14 14 14 14 15 16 16 17 16 15 16 16 16 15 16 19 21 22 24 25 26 27 27 28 29 30 31 32 32 33 35 36 36 37 38 38 39 40 40 41 42 42 43 43 43 43 44 44 45
Wind_Direction
243 244 245 242 237 232 228 233 235 239 247 248 253 246 240 243 258 279 286 288 267 258 255 254 251 249 247 247 248 250 250 251 253 257 261 266 272 277 281 284 287 288 288 288 288 288 289 290 293
240 242 243 243 239 232 228 232 238 243 249 253 255 247 236 242 262 279 289 286 271 264 261 264 262 258 255 253 253 253 254 254 255 258 261 264 269 274 277 280 282 283 285 285 285 285 287 288 291
238 239 241 242 239 233 228 234 239 243 256 253 251 237 221 227 245 266 272 277 272 265 263 265 266 263 261 259 258 258 257 257 258 260 261 262 266 271 274 276 277 279 280 281 282 282 284 286 289
238 237 239 240 237 233 230 234 240 248 256 255 251 239 219 222 244 262 265 267 264 261 264 266 264 265 265 263 261 260 258 257 258 259 259 260 263 267 269 271 273 275 276 276 276 276 281 285 287
240 239 238 237 234 234 234 235 240 248 256 254 249 244 242 234 254 268 272 269 267 266 265 269 267 265 265 264 262 260 257 256 257 257 257 257 259 263 265 268 270 270 269 269 269 271 275 280 284
242 240 238 235 231 233 234 237 240 244 252 257 251 247 245 244 259 275 277 272 268 267 264 267 270 267 265 263 261 258 255 254 253 253 252 253 256 259 262 264 266 265 263 264 265 267 272 276 282
244 241 238 233 228 230 232 237 241 242 249 257 256 248 244 251 264 277 275 269 264 263 264 268 269 266 263 262 259 255 252 251 250 248 248 250 252 255 258 261 262 260 260 262 263 266 270 276 285
246 243 238 233 227 226 231 237 238 242 248 256 258 253 247 250 268 277 271 273 272 262 265 271 272 266 261 258 255 250 248 246 246 245 246 248 250 253 255 255 255 255 258 259 261 266 272 280 289
249 246 240 233 227 223 228 235 237 242 247 254 260 259 249 251 262 271 270 269 272 266 264 269 270 266 261 256 251 246 245 244 244 244 245 246 248 250 251 251 252 254 255 257 261 269 274 281 289
252 249 241 232 227 224 225 231 234 240 247 253 258 258 253 255 259 263 265 264 262 261 257 259 263 263 258 252 248 245 244 243 242 243 244 244 245 246 247 250 253 254 256 259 264 270 276 282 289
255 250 241 231 226 224 225 228 232 238 244 251 257 256 254 256 260 262 258 255 252 252 247 247 254 256 253 246 243 241 239 239 239 240 239 239 240 242 246 250 252 253 257 260 267 273 280 285 291
256 250 242 233 227 224 225 228 231 235 241 248 253 256 258 258 258 262 258 254 246 243 240 241 246 249 247 242 238 236 235 235 236 235 235 236 238 241 245 250 253 255 257 262 269 277 282 286 289
257 252 244 236 229 226 226 227 230 233 238 243 249 254 259 264 263 266 262 254 245 238 235 236 239 243 244 239 233 231 232 232 232 233 233 234 236 242 246 247 251 255 259 265 272 277 281 285 289
258 253 247 240 232 227 227 227 230 232 237 240 245 248 254 258 263 265 266 258 248 241 236 230 233 236 239 236 232 230 230 230 230 231 234 234 236 241 245 247 250 255 260 266 271 276 280 285 288
257 255 251 245 238 231 230 228 229 230 234 238 243 249 254 258 262 265 268 257 255 250 240 233 231 232 234 234 230 228 228 231 233 234 236 236 238 240 246 251 254 256 260 265 271 275 278 282 285
256 255 252 246 241 234 233 230 228 228 231 235 241 247 252 258 262 265 266 263 259 248 240 239 232 228 230 231 229 227 228 231 234 236 240 240 243 247 251 255 260 261 262 265 268 272 275 278 282
252 251 246 236 234 231 233 232 226 227 228 233 239 244 250 255 260 263 265 267 263 255 249 239 227 230 232 230 226 225 228 229 234 238 241 244 247 252 255 257 262 265 268 269 268 272 275 278 281
239 236 229 221 216 222 229 229 223 223 226 230 236 241 246 252 257 261 264 265 263 260 260 245 238 235 236 230 229 229 231 234 239 243 249 249 253 257 259 261 264 269 273 273 274 275 276 278 280
222 220 214 204 203 220 224 220 215 217 221 226 232 237 243 249 254 258 263 265 264 264 264 251 248 244 241 237 234 236 238 241 246 250 255 258 260 260 263 265 265 270 274 274 275 278 278 279 278
214 210 205 198 201 216 220 218 214 212 217 224 230 235 239 244 251 258 261 263 262 263 264 256 249 244 243 239 238 242 245 247 252 257 257 262 264 265 266 267 270 272 272 274 273 277 277 276 275
206 205 202 200 198 209 218 221 219 217 221 226 231 236 239 243 249 256 260 264 265 262 262 252 247 243 242 244 246 247 250 255 259 260 264 266 270 273 274 272 273 272 273 275 276 276 279 276 274
208 205 207 204 203 206 214 228 226 227 229 232 235 238 243 246 251 255 258 264 266 265 261 254 253 249 245 247 252 257 259 261 264 268 274 272 274 275 279 280 277 278 279 279 280 279 278 277 276
211 208 212 213 211 212 215 229 231 230 234 236 238 242 245 247 252 256 258 261 266 268 263 258 258 258 258 261 265 267 267 266 269 272 276 279 279 281 286 286 286 286 286 287 287 285 281 280 279
212 213 216 220 218 219 218 229 233 233 235 237 239 244 247 248 250 254 258 261 263 265 267 261 261 263 265 268 270 271 272 273 274 275 276 279 282 287 288 287 289 290 291 292 292 288 283 280 280
209 212 217 223 222 224 227 232 234 236 239 241 241 245 248 249 250 252 254 259 260 263 265 263 261 262 264 266 269 272 274 277 277 277 280 282 286 289 288 288 289 290 292 291 290 287 285 282 281
202 209 212 222 225 229 236 239 240 242 246 248 249 248 248 248 250 251 253 258 256 259 262 263 263 263 265 267 271 273 275 277 278 280 281 283 286 288 289 288 289 289 289 289 288 287 286 285 282
200 202 209 222 225 235 241 246 252 253 251 253 255 251 248 248 249 251 253 256 255 257 261 263 264 265 266 270 273 274 275 277 279 280 282 284 285 286 287 288 288 287 288 288 288 287 286 285 284
202 203 211 224 235 245 252 261 260 258 265 259 253 253 249 248 247 250 253 256 258 260 262 264 267 268 270 273 275 276 276 279 281 282 283 283 284 285 286 286 287 288 288 288 288 287 286 286 285
204 211 216 225 240 253 262 271 268 269 269 267 263 255 251 250 251 252 252 256 260 262 264 267 269 272 274 275 276 277 278 280 280 281 282 283 284 285 286 287 288 288 289 289 289 289 289 288 287
207 215 224 236 250 263 272 277 279 283 279 277 276 264 260 260 257 256 257 260 263 266 267 269 271 273 274 276 276 277 278 279 280 281 282 283 284 285 286 287 289 289 290 290 291 291 291 290 290
Height
5890 5891 5891 5892 5894 5895 5895 5894 5894 5894 5894 5894 5894 5894 5895 5897 5899 5902 5900 5901 5902 5903 5903 5904 5905 5906 5907 5907 5908 5908 5909 5909 5910 5910 5910 5910 5910 5910 5909 5909 5908 5908 5907 5906 5905 5904 5904 5903 5902
5887 5887 5889 5889 5890 5892 5892 5891 5892 5892 5892 5892 5891 5890 5892 5894 5896 5898 5898 5899 5901 5902 5902 5903 5903 5904 5905 5905 5906 5907 5907 5908 5908 5909 5909 5909 5908 5908 5908 5908 5907 5907 5906 5905 5904 5904 5903 5902 5902
5882 5883 5885 5886 5888 5890 5890 5888 5889 5889 5889 5889 5888 5887 5887 5890 5893 5895 5896 5897 5899 5900 5900 5901 5901 5902 5902 5903 5904 5905 5905 5906 5906 5907 5907 5907 5907 5906 5906 5906 5906 5905 5905 5904 5903 5903 5902 5901 5901
5877 5879 5881 5883 5885 5886 5886 5886 5886 5887 5887 5885 5885 5884 5883 5887 5890 5893 5894 5896 5897 5898 5898 5898 5899 5899 5900 5900 5901 5902 5903 5903 5904 5904 5904 5904 5905 5905 5904 5904 5904 5904 5904 5903 5902 5902 5901 5901 5900
5872 5874 5876 5879 5882 5883 5883 5882 5883 5884 5884 5882 5882 5881 5879 5883 5887 5890 5893 5894 5894 5895 5896 5896 5896 5896 5897 5897 5898 5899 5900 5901 5901 5902 5902 5902 5902 5902 5902 5903 5903 5903 5902 5902 5901 5901 5900 5899 5899
5867 5868 5871 5875 5878 5879 5879 5879 5880 5881 5881 5880 5879 5878 5878 5881 5884 5888 5890 5890 5891 5892 5893 5893 5893 5893 5894 5894 5895 5896 5897 5897 5898 5899 5899 5900 5900 5900 5900 5901 5901 5901 5901 5901 5900 5900 5899 5898 5898
5861 5862 5865 5870 5873 5875 5876 5875 5876 5876 5877 5876 5874 5875 5876 5877 5881 5885 5886 5887 5888 5889 5890 5890 5890 5890 5891 5891 5892 5892 5893 5894 5895 5896 5897 5897 5897 5898 5898 5899 5899 5899 5899 5899 5898 5898 5898 5897 5897
5854 5856 5860 5864 5868 5872 5871 5869 5870 5871 5871 5872 5871 5872 5874 5875 5878 5881 5883 5884 5885 5886 5887 5887 5887 5888 5888 5888 5889 5889 5890 5891 5892 5893 5894 5894 5895 5895 5896 5896 5897 5897 5897 5897 5897 5896 5896 5896 5895
5847 5851 5855 5859 5863 5866 5865 5864 5865 5866 5866 5867 5868 5870 5871 5871 5874 5878 5880 5881 5883 5883 5884 5884 5885 5885 5885 5885 5885 5886 5887 5888 5889 5890 5891 5892 5892 5893 5893 5894 5894 5895 5895 5895 5895 5895 5894 5894 5893
5842 5845 5850 5853 5856 5859 5859 5859 5860 5861 5861 5863 5864 5866 5867 5868 5870 5874 5877 5878 5879 5880 5881 5881 5882 5882 5882 5882 5882 5883 5884 5885 5886 5887 5888 5889 5889 5890 5891 5891 5892 5892 5892 5892 5892 5892 5892 5891 5891
5835 5839 5842 5845 5848 5851 5853 5854 5855 5856 5858 5859 5861 5862 5864 5866 5868 5870 5873 5874 5876 5877 5877 5877 5878 5879 5879 5879 5879 5880 5881 5882 5883 5884 5885 5886 5886 5887 5888 5888 5889 5890 5890 5890 5890 5890 5889 5889 5888
5829 5832 5835 5838 5840 5843 5846 5849 5850 5852 5854 5855 5858 5859 5861 5863 5865 5867 5869 5871 5872 5873 5873 5874 5875 5875 5875 5876 5876 5877 5877 5878 5879 5880 5882 5883 5883 5884 5885 5885 5886 5886 5887 5887 5887 5886 5886 5885 5885
5823 5826 5828 5830 5833 5836 5839 5842 5844 5847 5850 5852 5854 5857 5859 5860 5861 5864 5866 5866 5866 5868 5869 5870 5871 5871 5872 5872 5873 5873 5874 5875 5876 5877 5878 5879 5880 5880 5881 5882 5882 5883 5883 5883 5883 5883 5882 5882 5881
5818 5819 5821 5824 5827 5830 5832 5836 5839 5843 5845 5847 5850 5853 5854 5856 5858 5859 5861 5862 5862 5863 5864 5865 5866 5867 5868 5869 5869 5870 5871 5872 5873 5874 5875 5876 5876 5877 5877 5878 5879 5879 5879 5880 5880 5879 5878 5878 5876
5811 5813 5816 5819 5822 5824 5826 5829 5834 5839 5840 5842 5844 5847 5849 5851 5853 5855 5856 5856 5858 5857 5859 5860 5861 5862 5863 5864 5865 5865 5867 5868 5869 5870 5871 5872 5872 5873 5873 5874 5875 5875 5875 5875 5875 5874 5874 5873 5872
5805 5808 5811 5814 5815 5818 5821 5824 5830 5833 5835 5837 5839 5842 5845 5847 5849 5850 5851 5852 5853 5853 5854 5856 5855 5857 5858 5860 5861 5862 5862 5863 5864 5865 5866 5866 5867 5868 5869 5869 5870 5870 5870 5870 5869 5869 5868 5867 5866
5800 5802 5805 5807 5809 5812 5813 5817 5824 5827 5830 5832 5834 5837 5840 5842 5844 5845 5846 5847 5848 5847 5849 5849 5849 5851 5854 5855 5856 5857 5858 5858 5860 5860 5861 5860 5862 5862 5863 5864 5864 5864 5864 5864 5864 5863 5862 5861 5860
5796 5797 5799 5802 5804 5805 5807 5811 5816 5819 5823 5826 5829 5831 5834 5837 5840 5841 5841 5842 5842 5843 5843 5843 5845 5846 5849 5850 5852 5853 5854 5855 5855 5856 5856 5855 5856 5857 5857 5857 5858 5858 5858 5857 5857 5857 5856 5855 5853
5790 5792 5795 5798 5800 5800 5801 5805 5809 5813 5816 5820 5823 5826 5829 5832 5835 5837 5837 5836 5836 5837 5838 5837 5839 5841 5843 5844 5846 5847 5848 5849 5850 5851 5850 5851 5851 5852 5851 5851 5852 5851 5851 5850 5850 5849 5848 5848 5846
5786 5788 5791 5794 5795 5796 5798 5801 5804 5808 5812 5815 5819 5822 5824 5827 5830 5831 5832 5833 5831 5830 5831 5832 5833 5835 5837 5838 5840 5842 5843 5844 5844 5844 5845 5845 5846 5846 5845 5845 5844 5844 5844 5843 5843 5842 5841 5840 5839
5782 5785 5787 5790 5791 5793 5796 5798 5800 5803 5807 5810 5813 5817 5820 5823 5825 5826 5827 5827 5825 5825 5825 5826 5828 5829 5831 5833 5835 5836 5837 5838 5838 5839 5840 5840 5840 5840 5839 5839 5838 5838 5837 5837 5836 5835 5834 5833 5832
5779 5781 5783 5785 5788 5790 5793 5794 5797 5800 5803 5806 5809 5812 5814 5817 5819 5821 5822 5822 5822 5821 5820 5820 5822 5823 5825 5827 5828 5829 5831 5832 5833 5834 5834 5834 5834 5833 5833 5832 5831 5831 5830 5829 5829 5828 5827 5826 5825
5775 5778 5780 5782 5784 5787 5789 5791 5794 5796 5799 5803 5805 5807 5809 5812 5813 5815 5816 5817 5817 5817 5816 5815 5817 5818 5820 5821 5822 5823 5825 5826 5827 5828 5828 5828 5827 5826 5826 5824 5823 5823 5822 5821 5820 5819 5819 5818 5817
5773 5775 5777 5779 5782 5785 5787 5789 5791 5793 5795 5797 5800 5802 5804 5806 5808 5810 5810 5811 5812 5812 5812 5811 5812 5814 5815 5816 5817 5818 5818 5819 5820 5820 5821 5820 5819 5819 5818 5817 5816 5815 5814 5813 5812 5811 5810 5809 5807
5771 5774 5776 5778 5780 5782 5785 5786 5788 5789 5791 5792 5794 5797 5798 5800 5802 5804 5805 5805 5805 5806 5807 5807 5808 5809 5811 5812 5812 5812 5813 5813 5813 5813 5813 5812 5811 5811 5810 5808 5808 5807 5805 5804 5803 5802 5801 5799 5797
5769 5772 5775 5777 5778 5780 5781 5782 5784 5785 5786 5787 5789 5791 5793 5794 5796 5797 5799 5798 5799 5801 5802 5803 5803 5804 5805 5806 5806 5806 5806 5807 5806 5806 5805 5805 5803 5803 5802 5801 5799 5798 5796 5795 5794 5792 5790 5788 5786
5768 5770 5772 5774 5776 5777 5778 5779 5780 5780 5782 5783 5784 5786 5788 5789 5791 5792 5793 5794 5795 5796 5797 5798 5798 5799 5800 5800 5800 5800 5799 5799 5799 5798 5797 5796 5795 5794 5793 5792 5790 5788 5787 5785 5783 5781 5779 5776 5774
5767 5769 5771 5773 5774 5775 5776 5776 5777 5776 5777 5778 5779 5780 5782 5783 5785 5786 5788 5789 5790 5790 5791 5791 5792 5793 5793 5793 5792 5792 5792 5792 5791 5790 5789 5788 5786 5785 5783 5782 5780 5778 5776 5774 5772 5769 5766 5764 5761
5766 5767 5768 5770 5772 5773 5773 5775 5774 5772 5772 5773 5774 5775 5776 5778 5779 5781 5782 5783 5784 5784 5785 5785 5785 5785 5785 5785 5784 5784 5784 5783 5783 5782 5780 5779 5777 5775 5773 5771 5769 5767 5765 5762 5760 5757 5754 5751 5748
5764 5766 5768 5769 5770 5770 5770 5773 5770 5769 5768 5769 5770 5769 5771 5773 5774 5775 5776 5777 5778 5778 5778 5778 5778 5778 5777 5777 5776 5776 5775 5774 5773 5772 5770 5769 5767 5765 5763 5760 5758 5756 5753 5750 5747 5744 5741 5738 5735